Gage, OK

9:22 AM CST on January 22, 2018 (GMT -0600)
Gage

Weather History for KGAG - December, 2012

Change the Weather History Date:

Monday, December 3, 2012

  Actual Average Record
Temperature  
Mean Temperature 60 °F -  
Max Temperature 71 °F 51 °F 78 °F (2017)
Min Temperature 48 °F 23 °F 12 °F (1978)
Degree Days  
Heating Degree Days 4    
Growing Degree Days 10 (Base 50)    
Moisture  
Dew Point 33 °F    
Average Humidity 41    
Maximum Humidity 58    
Minimum Humidity 16    
Precipitation  
Precipitation 0.00 in - - ()
Sea Level Pressure  
Sea Level Pressure 29.84 in    
Wind  
Wind Speed 20 mph (NNW)    
Max Wind Speed 28 mph    
Max Gust Speed 41 mph    
Visibility 10 miles    
Events      
Averages and records for this station are not official NWS values.
T = Trace of Precipitation, MM = Missing Value Source: NWS Daily Summary

Daily Weather History Graph

Daily Weather History Graph

Search for Another Location

Airport or City:

Trip Planner

Search our weather history database for the weather conditions in past years. The results will help you decide how hot, cold, wet, or windy it might be!

Date:

Astronomy

Dec. 03, 2012 Rise Set
Actual Time 7:34 AM CST 5:23 PM CST
Civil Twilight 7:05 AM CST 5:52 PM CST
Nautical Twilight 6:33 AM CST 6:24 PM CST
Astronomical Twilight 6:02 AM CST 6:55 PM CST
Moon 10:07 PM CST (12/3) 11:02 AM CST (12/3)
Length of Visible Light 10h 46m
Length of Day
9h 49m
Waning Gibbous, 78% of the Moon is Illuminated
Dec 3
Waning Gibbous
Dec 6
Last Quarter
Dec 13
New
Dec 19
First Quarter
Dec 28
Full

Hourly Weather History & Observations

Time (CST) Temp. Dew Point Humidity Pressure Visibility Wind Dir Wind Speed Gust Speed Precip Events Conditions
12:53 AM 57.9 °F 42.1 °F 56% 29.71 in 10.0 mi South 20.7 mph - N/A   Clear
1:53 AM 57.0 °F 37.9 °F 49% 29.70 in 10.0 mi South 20.7 mph - N/A   Clear
2:53 AM 55.9 °F 37.0 °F 49% 29.68 in 10.0 mi SSW 23.0 mph - N/A   Clear
3:53 AM 55.0 °F 36.0 °F 49% 29.68 in 10.0 mi South 24.2 mph - N/A   Clear
4:53 AM 53.1 °F 37.9 °F 57% 29.66 in 10.0 mi South 20.7 mph 27.6 mph N/A   Clear
5:53 AM 54.0 °F 36.0 °F 51% 29.68 in 10.0 mi SSW 24.2 mph 29.9 mph N/A   Clear
6:53 AM 53.1 °F 32.0 °F 45% 29.69 in 10.0 mi South 21.9 mph 26.5 mph N/A   Clear
7:53 AM 53.1 °F 30.9 °F 43% 29.72 in 10.0 mi SSW 19.6 mph - N/A   Clear
8:53 AM 57.0 °F 30.0 °F 36% 29.73 in 10.0 mi SSW 16.1 mph - N/A   Clear
9:53 AM 64.0 °F 21.9 °F 20% 29.75 in 10.0 mi WSW 15.0 mph - N/A   Clear
10:53 AM 69.1 °F 21.0 °F 16% 29.78 in 10.0 mi NW 20.7 mph 28.8 mph N/A   Clear
11:53 AM 69.1 °F 25.0 °F 19% 29.78 in 10.0 mi North 19.6 mph 31.1 mph N/A   Clear
12:53 PM 71.1 °F 30.0 °F 22% 29.77 in 10.0 mi North 26.5 mph 41.4 mph N/A   Clear
1:53 PM 71.1 °F 33.1 °F 25% 29.80 in 10.0 mi NNE 25.3 mph 36.8 mph N/A   Clear
2:53 PM 69.1 °F 33.1 °F 26% 29.83 in 10.0 mi NNE 27.6 mph 34.5 mph N/A   Clear
3:53 PM 66.0 °F 34.0 °F 30% 29.87 in 10.0 mi NNE 19.6 mph 28.8 mph N/A   Clear
4:53 PM 62.1 °F 36.0 °F 38% 29.91 in 10.0 mi North 18.4 mph 23.0 mph N/A   Clear
5:53 PM 57.9 °F 36.0 °F 44% 29.96 in 10.0 mi NNE 9.2 mph - N/A   Clear
6:53 PM 57.0 °F 37.0 °F 47% 29.99 in 10.0 mi North 15.0 mph 21.9 mph N/A   Clear
7:53 PM 54.0 °F 37.0 °F 53% 30.03 in 10.0 mi North 11.5 mph - N/A   Clear
8:53 PM 53.1 °F 36.0 °F 52% 30.05 in 10.0 mi North 13.8 mph - N/A   Clear
9:53 PM 52.0 °F 34.0 °F 50% 30.07 in 10.0 mi North 12.7 mph - N/A   Clear
10:53 PM 50.0 °F 33.1 °F 52% 30.08 in 10.0 mi North 8.1 mph - N/A   Clear
11:53 PM 48.2 °F 33.8 °F 58% 30.14 in 10.0 mi NNW 9.2 mph - N/A   Clear